Home > Weather > Puerto Vallarta > Past weeks

Flag for Mexico Past Weather in Puerto Vallarta, Jalisco, Mexico — Yesterday and Last 2 Weeks

Now
86 °F

Scattered clouds.


Feels Like: 97 °F
Forecast: 79 / 85 °F
Wind: 7 mph from Southwest

Location: Puerto Vallarta / Lic

Current Time: Jul 24, 2016 at 1:32:20 PM

Latest Report: Jul 24, 2016 at 12:49 PM


Visibility: 15 mi

Pressure: 29.90 "Hg

Humidity: 75%

Dew Point: 77 °F

Location of Puerto VallartaLocation

Past Weather in Puerto Vallarta — Graph

°F

Puerto Vallarta Temperature Yesterday

Maximum temperature yesterday: 88 °F (at 12:47 PM)
Minimum temperature yesterday: 75 °F (at 3:45 AM)
Average temperature yesterday: 82 °F

High & Low Weather Summary for the Past Weeks

 TemperatureHumidityPressure
High91 °F (Jul 20, 2:50 PM)100% (Jul 12, 6:55 AM)29.99 "Hg (Jul 12, 6:55 AM)
Low73 °F (Jul 17, 6:51 AM)55% (Jul 16, 2:53 PM)29.78 "Hg (Jul 20, 6:49 PM)
Average82 °F83%29.90 "Hg
* Reported Jul 9 11:45 AM — Jul 24 11:50 AM, Puerto Vallarta, Weather by CustomWeather, © 2016

Note: Actual official high and low records may vary slightly from our data, if they occured in-between our weather recording intervals... More about our weather records

Advertising

Puerto Vallarta Weather History for the Previous 24 Hours

Scroll right to see more
 ConditionsComfort  
Time TempWeatherWind HumidityBarometerVisibility
11:50 AM
Sun, Jul 24
88 °FScattered clouds.3 mph66%29.91 "Hg15 mi
10:52 AM84 °FScattered clouds.No wind79%29.92 "Hg15 mi
9:49 AM82 °FScattered clouds.No wind84%29.91 "Hg15 mi
8:47 AM79 °FBroken clouds.No wind94%29.91 "Hg15 mi
7:49 AM77 °FPartly cloudy.3 mph94%29.89 "Hg15 mi
6:47 AM77 °FPartly cloudy.3 mph94%29.86 "Hg15 mi
6:10 AM77 °FOvercast.No wind94%29.87 "Hg12 mi
4:47 AM77 °FOvercast.5 mph100%29.89 "Hg12 mi
3:51 AM77 °FOvercast.5 mph100%29.90 "Hg12 mi
2:51 AM79 °FOvercast.No wind94%29.92 "Hg12 mi
1:49 AM79 °FOvercast.No wind100%29.94 "Hg12 mi
12:47 AM79 °FThunderstorms. Overcast.5 mph94%29.93 "Hg12 mi
11:49 PM
Sat, Jul 23
81 °FOvercast.6 mph94%29.93 "Hg12 mi
10:47 PM82 °FOvercast.3 mph89%29.91 "Hg12 mi
9:52 PM81 °FMostly cloudy.No wind94%29.89 "Hg12 mi
6:51 PM84 °FMostly cloudy.3 mph84%29.85 "Hg15 mi
5:51 PM86 °FMostly cloudy.7 mph75%29.85 "Hg15 mi
4:52 PM88 °FBroken clouds.9 mph70%29.85 "Hg15 mi
3:45 PM88 °FBroken clouds.9 mph70%29.87 "Hg15 mi
1:51 PM88 °FBroken clouds.8 mph66%29.91 "Hg15 mi
Weather by CustomWeather, © 2016

See weather overviewHow to use our weather pages